Date String (YYYY-MM-DD hh:mm:ss) UTC,Instrument flags,Ambient pressure (hPa),Sample flow (lpm),Bypass flow (lpm),Sample temperature (°C),Ambient temperature (°C),ASC tube jacket temperature (°C),LED temperature (°C),Box temperature (°C),Sample RH (%),Span deviation,Mass concentration (μg/m³),Mass concentration (μg/m³),Mass concentration (μg/m³)
DateTimeUTC,F1_M11,P_M11,Q1_M11,Q2_M11,T1_M11,T2_M11,T3_M11,T4_M11,T5_M11,U1_M11,ZSPAN_M11,X0_M11,X2_M11,X1_M11
2022-05-20 00:00:00,,0807.3,4.99,0.00,29.4,27.5,00.0,38.1,31.1,08.9,0000.0,0011.78,0003.69,0001.87
2022-05-20 00:01:00,,0807.2,5.00,0.00,29.3,27.0,00.0,38.0,30.9,09.2,0000.0,0011.74,0003.69,0001.88
2022-05-20 00:02:00,,0807.2,5.01,0.00,29.2,27.0,00.0,38.0,30.9,09.1,0000.0,0011.24,0003.71,0001.89
2022-05-20 00:03:00,,0807.1,4.99,0.00,29.2,27.1,00.0,38.0,30.9,08.9,0000.0,0010.77,0003.80,0001.91
2022-05-20 00:04:00,,0807.0,5.00,0.00,29.2,27.3,00.0,38.0,31.0,08.7,0000.0,0010.76,0003.78,0001.93
2022-05-20 00:05:00,,0807.1,5.01,0.00,29.2,27.5,00.0,38.0,31.0,08.9,0000.0,0010.61,0003.81,0001.96
2022-05-20 00:06:00,,0807.1,5.01,0.00,29.2,27.7,00.0,38.0,31.1,08.9,0000.0,0010.60,0003.82,0001.98
2022-05-20 00:07:00,,0807.2,5.00,0.00,29.3,27.9,00.0,38.1,31.2,09.3,0000.0,0010.99,0003.84,0002.00
2022-05-20 00:08:00,,0807.2,4.99,0.00,29.3,28.1,00.0,38.1,31.2,08.7,0000.0,0011.61,0003.84,0002.00
2022-05-20 00:09:00,,0807.2,4.99,0.00,29.3,28.3,00.0,38.1,31.3,08.9,0000.0,0011.78,0003.86,0002.03
2022-05-20 00:10:00,,0807.3,5.00,0.00,29.4,28.4,00.0,38.1,31.4,09.1,0000.0,0012.52,0003.87,0002.07
2022-05-20 00:11:00,,0807.3,5.00,0.00,29.4,28.4,00.0,38.1,31.4,08.9,0000.0,0012.89,0003.87,0002.09
2022-05-20 00:12:00,,0807.3,5.00,0.00,29.4,27.7,00.0,38.1,31.2,08.9,0000.0,0013.10,0003.92,0002.11
2022-05-20 00:13:00,,0807.2,4.99,0.00,29.3,27.0,00.0,38.1,30.9,09.0,0000.0,0013.15,0003.89,0002.11
2022-05-20 00:14:00,,0807.2,5.01,0.00,29.2,27.0,00.0,38.0,30.9,09.0,0000.0,0012.87,0003.85,0002.11
2022-05-20 00:15:00,,0807.2,4.99,0.00,29.2,27.1,00.0,38.0,30.9,09.0,0000.0,0013.21,0003.85,0002.10
2022-05-20 00:16:00,,0807.4,5.00,0.00,29.2,27.3,00.0,38.0,31.0,09.0,0000.0,0012.99,0003.86,0002.11
2022-05-20 00:17:00,,0807.4,5.00,0.00,29.2,27.5,00.0,38.0,31.0,09.3,0000.0,0014.12,0003.91,0002.12
2022-05-20 00:18:00,,0807.5,5.01,0.00,29.2,27.7,00.0,38.1,31.1,09.3,0000.0,0013.96,0003.97,0002.12
2022-05-20 00:19:00,,0807.5,5.00,0.00,29.3,27.9,00.0,38.1,31.2,09.6,0000.0,0013.43,0003.97,0002.12
2022-05-20 00:20:00,,0807.4,5.01,0.00,29.3,28.1,00.0,38.1,31.3,09.3,0000.0,0013.74,0004.00,0002.11
2022-05-20 00:21:00,,0807.4,4.99,0.00,29.3,28.3,00.0,38.1,31.3,09.4,0000.0,0013.34,0004.02,0002.09
2022-05-20 00:22:00,,0807.5,5.01,0.00,29.4,28.4,00.0,38.1,31.4,09.5,0000.0,0012.83,0004.03,0002.09
2022-05-20 00:23:00,,0807.5,5.01,0.00,29.4,28.5,00.0,38.2,31.4,09.6,0000.0,0013.17,0004.06,0002.08
2022-05-20 00:24:00,,0807.5,4.99,0.00,29.4,28.0,00.0,38.1,31.3,09.2,0000.0,0013.79,0004.09,0002.09
2022-05-20 00:25:00,,0807.4,5.00,0.00,29.3,27.2,00.0,38.1,31.0,09.3,0000.0,0014.67,0004.12,0002.08
2022-05-20 00:26:00,,0807.4,5.01,0.00,29.3,27.0,00.0,38.0,30.9,09.3,0000.0,0014.19,0004.15,0002.09
2022-05-20 00:27:00,,0807.4,4.99,0.00,29.2,27.1,00.0,38.0,30.9,09.6,0000.0,0013.99,0004.14,0002.09
2022-05-20 00:28:00,,0807.5,5.00,0.00,29.2,27.2,00.0,38.0,31.0,09.6,0000.0,0013.51,0004.08,0002.08
2022-05-20 00:29:00,,0807.4,5.00,0.00,29.2,27.4,00.0,38.0,31.0,09.5,0000.0,0013.32,0004.07,0002.08
2022-05-20 00:30:00,,0807.4,5.00,0.00,29.2,27.6,00.0,38.1,31.1,09.5,0000.0,0012.93,0004.05,0002.09
2022-05-20 00:31:00,,0807.4,5.01,0.00,29.3,27.8,00.0,38.1,31.2,09.5,0000.0,0012.55,0003.99,0002.09
2022-05-20 00:32:00,,0807.4,5.01,0.00,29.3,28.0,00.0,38.1,31.2,09.4,0000.0,0012.47,0003.98,0002.11
2022-05-20 00:33:00,,0807.5,5.00,0.00,29.3,28.2,00.0,38.1,31.3,09.2,0000.0,0012.46,0003.96,0002.10
2022-05-20 00:34:00,,0807.5,4.99,0.00,29.4,28.4,00.0,38.1,31.4,09.4,0000.0,0012.82,0003.91,0002.09
2022-05-20 00:35:00,,0807.5,5.01,0.00,29.4,28.4,00.0,38.1,31.4,09.5,0000.0,0012.50,0003.89,0002.08
2022-05-20 00:36:00,,0807.4,5.01,0.00,29.4,27.7,00.0,38.1,31.2,09.0,0000.0,0011.74,0003.88,0002.08
2022-05-20 00:37:00,,0807.5,4.99,0.00,29.3,27.0,00.0,38.0,31.0,09.1,0000.0,0012.12,0003.87,0002.08
2022-05-20 00:38:00,,0807.5,5.01,0.00,29.2,26.9,00.0,38.0,30.9,09.6,0000.0,0013.39,0003.88,0002.08
2022-05-20 00:39:00,,0807.4,4.99,0.00,29.2,27.0,00.0,38.0,30.9,09.2,0000.0,0013.34,0003.91,0002.06
2022-05-20 00:40:00,,0807.4,4.99,0.00,29.2,27.2,00.0,38.0,31.0,09.0,0000.0,0012.97,0003.88,0002.06
2022-05-20 00:41:00,,0807.4,5.00,0.00,29.2,27.4,00.0,38.0,31.0,09.2,0000.0,0012.94,0003.90,0002.05
2022-05-20 00:42:00,,0807.4,5.00,0.00,29.2,27.7,00.0,38.0,31.1,09.0,0000.0,0014.00,0003.96,0002.05
2022-05-20 00:43:00,,0807.5,5.00,0.00,29.2,27.9,00.0,38.1,31.2,09.1,0000.0,0015.53,0003.96,0002.03
2022-05-20 00:44:00,,0807.5,5.00,0.00,29.3,28.1,00.0,38.1,31.2,09.3,0000.0,0016.23,0003.97,0002.02
2022-05-20 00:45:00,,0807.5,5.00,0.00,29.3,28.2,00.0,38.1,31.3,09.4,0000.0,0016.05,0004.00,0002.03
2022-05-20 00:46:00,,0807.5,5.00,0.00,29.4,28.4,00.0,38.1,31.4,09.1,0000.0,0015.95,0003.99,0002.03
2022-05-20 00:47:00,,0807.4,4.99,0.00,29.4,28.5,00.0,38.2,31.4,09.0,0000.0,0015.79,0003.96,0002.03
2022-05-20 00:48:00,,0807.5,5.01,0.00,29.4,28.4,00.0,38.2,31.4,09.0,0000.0,0015.32,0003.92,0002.01
2022-05-20 00:49:00,,0807.6,5.00,0.00,29.4,27.5,00.0,38.1,31.1,09.2,0000.0,0014.31,0003.89,0002.00
2022-05-20 00:50:00,,0807.6,5.00,0.00,29.3,27.0,00.0,38.1,31.0,09.3,0000.0,0014.22,0003.85,0002.02
2022-05-20 00:51:00,,0807.5,5.01,0.00,29.2,27.0,00.0,38.0,30.9,09.4,0000.0,0015.55,0003.83,0002.01
2022-05-20 00:52:00,,0807.4,5.00,0.00,29.2,27.1,00.0,38.0,30.9,09.2,0000.0,0016.01,0003.80,0002.00
2022-05-20 00:53:00,,0807.5,5.00,0.00,29.2,27.3,00.0,38.0,31.0,09.2,0000.0,0015.26,0003.78,0001.99
2022-05-20 00:54:00,,0807.5,5.00,0.00,29.2,27.5,00.0,38.0,31.0,09.4,0000.0,0013.70,0003.78,0001.98
2022-05-20 00:55:00,,0807.5,5.00,0.00,29.2,27.7,00.0,38.0,31.1,09.3,0000.0,0013.10,0003.76,0001.97
2022-05-20 00:56:00,,0807.7,5.00,0.00,29.2,27.9,00.0,38.1,31.2,09.2,0000.0,0013.44,0003.75,0001.95
2022-05-20 00:57:00,,0807.6,5.00,0.00,29.3,28.1,00.0,38.1,31.2,09.0,0000.0,0013.87,0003.75,0001.94
2022-05-20 00:58:00,,0807.4,5.00,0.00,29.3,28.2,00.0,38.1,31.3,08.9,0000.0,0014.58,0003.78,0001.95
2022-05-20 00:59:00,,0807.5,5.01,0.00,29.4,28.4,00.0,38.1,31.3,08.6,0000.0,0014.63,0003.76,0001.95
